TITAN 3C TRANSTAGE DEB, 20760

Orbit data source: Space-Track

TITAN 3C TRANSTAGE DEB, 20760 is space debris in HEO originally from a launch on Tue, 21 Dec 1965 UTC launched from the Air Force Eastern Test Range (AFETR). Debris objects in space refer to the collection of defunct objects orbiting the Earth. Examples of debris include non-operational satellites, rocket bodies, and fragments generated from explosions, collisions, or faulty payload assembly.

Loading next visibility...
Identifier
20760, 1965-108AE
Orbit
HEO
Country
Flag of USUS
Related business
Manufacturer
Unknown
Mission
Spacecraft
Bus & Motor
Unknown
Mass
Unknown
Launch date (UTC)
1965-12-21 (61 years ago)
Launch vehicle
Unknown
Launch site
Air Force Eastern Test Range (AFETR)
Object type
Payload
Rocket body
Debris
Shape & HBR
Unknown shape, 0.2 m
Radar Cross Section
Medium (>0.1 m² and <1 m²)

Expand to show TLE details & history
Last TLE update: 4 months ago

TLE from 4 months ago
0 TITAN 3C TRANSTAGE DEB
1 20760U 65108AE  26073.20171028 -.00000182  00000-0 -11916-2 0  9997
2 20760  27.4554   4.0470 6692182 234.2318 337.8733  2.84508125148648
Epoch: 2026-03-14T04:50Z
TLE epoch observation values (Epoch: 2026-03-14T04:50:27.768Z)
Latitude
17.80534°
Longitude
-98.43321°
Altitude
6,071.906 km
Speed
6.715 km/s
True Right ascension
09h 44m 02s
True Declination
17° 44' 53"
Sunlit
Object was in daylight at epoch
Visualization orbit readout
Latitude
Unknown
Longitude
Unknown
Altitude
Unknown
Speed
Unknown
Apparent Right ascension
Unknown
Apparent Declination
Unknown
Sunlit
N/A
Visualization observer readout
Local Sidereal Time
14:15:57
Azimuth
Unknown
Elevation
Unknown
Doppler factor
Unknown
Orbital elements
Apogee altitude
28,744.775 km
Perigee altitude
582.02 km
Semi-major axis
21,041.534 km
Eccentricity
0.66922
Inclination
27.4554°
RAAN
4.047°
Arg. of periapsis
234.2318°
True anomaly
264.04621°
Mean anomaly
337.8733°
Eccentric anomaly
307.4215°
Mean motion
0.71109 °/min
Orbital period
506.26 mins
BSTAR
-0.0011916
Loading maneuver chart data...
Computing Atmospheric mass density...

Documentation

Showing up to 5 results
|